DW6145 Weather Reports


time (UTC)temp
C
wind
direction
speed
KPH
gust
KPH
rain 1hr
cm
rain 24hr
cm
rain mn
cm
humidity
%
barometer
mb
20260507010605 15 138 0.0 4.8 0.00 3.40 0.03 95 468.0
20260507005600 15 138 0.0 4.8 0.00 3.40 0.03 94 468.0
20260507004600 15 138 3.2 4.8 0.00 3.40 0.03 94 469.8
20260507003552 15 138 1.6 6.4 0.00 3.40 0.03 94 467.2
20260507002553 15 138 0.0 6.4 0.00 3.40 0.03 94 468.0
20260507001550 15 138 0.0 4.8 0.00 3.40 0.03 94 467.9
20260507001037 15 138 0.0 0.0 0.00 3.40 0.03 94 468.1
20260506235545 15 138 0.0 0.0 0.00 3.40 0.03 94 473.3
20260506235024 15 138 0.0 0.0 0.00 3.40 0.03 94 467.5
20260506233542 15 138 0.0 0.0 0.03 3.40 0.03 94 467.5
20260506232541 15 138 3.2 11.3 0.03 3.40 0.03 94 468.0
20260506231534 15 135 1.6 6.4 0.03 3.40 0.03 94 468.0
20260506231037 15 136 1.6 8.0 0.03 3.40 0.03 94 468.0
20260506230448 15 139 0.0 8.0 0.03 3.38 0.03 94 478.5
20260506224531 15 175 1.6 4.8 0.03 3.38 0.03 93 468.0
20260506224015 15 175 0.0 0.0 0.00 3.38 0.00 93 467.2
20260506222532 15 175 0.0 0.0 0.00 3.38 0.00 93 467.9
20260506221531 15 175 0.0 0.0 0.00 3.40 0.00 93 466.9
20260506220530 15 175 0.0 0.0 0.00 3.43 0.00 93 468.0
20260506215524 14 175 0.0 0.0 0.00 3.43 3.43 92 468.0
20260506214523 15 175 0.0 0.0 0.00 3.43 3.43 92 467.9
20260506213524 15 175 0.0 0.0 0.00 3.43 3.43 92 468.0
20260506212516 15 175 0.0 0.0 0.00 3.48 3.43 92 468.0
20260506211517 15 175 0.0 0.0 0.00 3.48 3.43 92 468.0
20260506210516 15 175 0.0 0.0 0.00 3.48 3.43 92 465.0
20260506205516 15 175 0.0 0.0 0.00 3.48 3.43 92 468.0
20260506204516 15 175 0.0 0.0 0.00 3.48 3.43 92 468.0
20260506203510 15 175 0.0 0.0 0.00 3.48 3.43 92 456.4
20260506202947 15 175 1.6 9.7 0.00 3.48 3.43 91 473.5
20260506201510 15 160 3.2 9.7 0.00 3.48 3.43 92 468.0
20260506200510 15 158 3.2 11.3 0.00 3.48 3.43 93 473.3
20260506195505 15 159 0.0 8.0 0.00 3.51 3.43 93 619.6
20260506194507 15 184 3.2 9.7 0.00 3.56 3.43 94 468.0
20260506193506 15 180 1.6 9.7 0.03 3.58 3.43 94 479.7
20260506192506 15 159 1.6 11.3 0.15 3.61 3.43 94 467.2
20260506191502 16 171 1.6 9.7 0.15 3.61 3.43 94 468.0
20260506190504 16 186 4.8 11.3 0.15 3.63 3.43 93 494.6
20260506185505 16 180 4.8 16.1 0.15 3.51 3.43 93 468.3
20260506184504 16 191 4.8 14.5 0.15 3.51 3.43 93 468.1
20260506183503 16 215 8.0 22.5 0.15 3.51 3.38 93 468.0
20260506182946 16 198 4.8 16.1 0.00 3.51 3.25 93 468.0
20260506181501 16 221 6.4 14.5 0.00 3.53 3.25 93 468.1
20260506180456 16 209 3.2 9.7 0.00 3.53 3.25 93 468.1
20260506175458 16 213 3.2 11.3 0.00 3.53 3.25 93 464.0
20260506174452 16 198 1.6 8.0 0.00 3.53 3.25 93 468.0
20260506173454 15 207 0.0 4.8 0.00 3.53 3.25 93 453.1
20260506172450 15 189 3.2 11.3 0.00 3.53 3.25 92 468.0
20260506171447 15 210 3.2 12.9 0.00 3.53 3.25 92 723.2
20260506170458 15 201 4.8 16.1 0.00 3.53 3.25 92 447.2
20260506165442 16 220 6.4 14.5 0.05 3.48 3.25 92 473.3
20260506164447 16 195 8.0 20.9 0.05 3.48 3.25 91 466.6
20260506163444 16 202 9.7 19.3 0.05 3.48 3.25 92 475.9
20260506163408 16 210 8.0 17.7 0.05 3.48 3.25 92 468.1
20260506161442 16 221 4.8 17.7 0.05 3.48 3.25 92 468.1
20260506160443 16 211 1.6 9.7 0.05 3.48 3.25 92 470.4
20260506155442 16 186 1.6 11.3 0.00 3.45 3.20 90 468.1
20260506154444 16 179 1.6 11.3 0.00 3.45 3.20 90 622.3
20260506153444 16 167 6.4 17.7 0.00 3.48 3.20 88 467.5
20260506152922 16 163 9.7 22.5 0.00 3.48 3.20 88 445.6
20260506152402 16 196 9.7 22.5 0.00 3.48 3.20 88 468.0
20260506150440 16 190 8.0 17.7 0.00 3.48 3.20 90 440.1
20260506145918 16 184 8.0 19.3 0.03 3.51 3.20 91 468.4
20260506144437 16 150 9.7 19.3 0.03 3.51 3.20 91 483.9
20260506143438 16 188 8.0 22.5 0.03 3.53 3.20 92 468.0
20260506142915 16 183 8.0 19.3 0.05 3.53 3.20 93 468.7
20260506141431 16 188 3.2 16.1 0.08 3.56 3.20 93 473.3
20260506140432 16 195 4.8 16.1 0.08 3.58 3.20 93 468.0
20260506135430 16 175 6.4 16.1 0.05 3.53 3.17 92 484.3
20260506134431 16 167 8.0 25.7 0.05 3.56 3.17 92 468.0
20260506133430 16 165 9.7 24.1 0.05 3.63 3.17 92 471.5
20260506132432 16 179 11.3 22.5 0.05 3.73 3.15 92 478.5
20260506131432 16 178 8.0 20.9 0.03 3.86 3.12 91 466.0
20260506130430 16 196 11.3 27.4 0.05 3.99 3.12 90 467.9
20260506125432 16 217 14.5 25.7 0.05 3.94 3.12 90 468.0
20260506124431 15 177 11.3 25.7 0.05 3.94 3.12 91 473.3
20260506123430 16 188 8.0 19.3 0.05 3.94 3.12 94 436.1
20260506122432 16 207 9.7 17.7 0.05 3.94 3.10 94 467.9
20260506121431 15 175 11.3 27.4 0.05 3.94 3.10 93 478.5
20260506120430 15 171 8.0 20.9 0.15 3.94 3.07 94 483.9
20260506115431 15 168 11.3 24.1 0.15 3.78 3.07 94 472.6
20260506114432 15 180 11.3 19.3 0.20 3.78 3.07 95 467.3
20260506113432 15 167 8.0 19.3 0.41 3.78 3.07 95 473.3
20260506112430 15 188 12.9 30.6 0.81 3.78 3.05 95 467.9
20260506111917 15 155 11.3 29.0 1.55 3.78 3.05 95 485.3
20260506110429 15 192 9.7 27.4 1.65 3.78 2.92 96 468.0
20260506105433 15 190 8.0 16.1 1.70 2.11 2.92 96 465.4
20260506104426 15 198 8.0 24.1 1.78 2.11 2.87 95 607.6
20260506103428 15 114 8.0 19.3 1.63 2.11 2.67 95 468.1
20260506102425 15 130 6.4 14.5 1.27 3.10 2.21 95 467.2
20260506101426 15 151 8.0 22.5 0.58 2.39 1.52 95 474.0
20260506100418 15 161 4.8 14.5 0.33 2.13 1.27 95 468.0
20260506095418 15 146 1.6 9.7 0.28 2.08 1.22 95 480.8
20260506094858 15 185 3.2 9.7 0.18 1.96 1.09 95 484.2
20260506093415 15 173 8.0 16.1 0.15 1.93 1.07 95 467.9
20260506092417 15 174 9.7 16.1 0.05 1.83 0.97 95 466.4
20260506091412 15 153 8.0 22.5 0.05 1.80 0.94 96 468.0
20260506090413 15 155 6.4 17.7 0.05 1.80 0.94 95 468.4
20260506085408 15 143 8.0 17.7 0.08 1.80 0.94 96 468.0
20260506084410 15 147 9.7 17.7 0.10 1.78 0.91 96 467.9
20260506083406 15 158 9.7 20.9 0.15 1.78 0.91 96 455.6
20260506082405 15 141 8.0 17.7 0.15 1.78 0.91 96 467.9
20260506081402 15 132 3.2 12.9 0.13 1.75 0.89 96 470.9
20260506080858 15 131 6.4 12.9 0.10 1.75 0.89 96 625.4
20260506073403 15 121 4.8 12.9 0.15 1.65 0.79 96 465.6
20260506072404 14 107 6.4 16.1 0.30 1.65 0.79 96 426.8
20260506071402 14 109 8.0 14.5 0.43 1.65 0.79 96 468.0
20260506070402 14 103 4.8 11.3 0.58 1.65 0.79 96 468.0
20260506062403 14 114 3.2 14.5 0.43 1.35 0.48 94 468.0
20260506061404 14 67 3.2 4.8 0.33 1.22 0.36 94 664.2
20260506060404 15 67 1.6 4.8 0.15 1.07 0.20 93 468.5
20260506051404 15 67 1.6 6.4 0.00 0.89 0.05 93 478.5
20260506050404 14 67 0.0 6.4 0.00 0.89 0.05 94 467.9
20260506044402 14 67 3.2 6.4 0.00 0.89 0.05 94 467.2
20260506043403 14 67 0.0 4.8 0.00 0.89 0.05 94 468.0
20260506042844 14 67 1.6 6.4 0.00 0.89 0.05 95 504.6
20260506041400 13 67 3.2 6.4 0.00 0.89 0.05 95 468.0
20260506040401 13 67 1.6 6.4 0.00 0.89 0.05 95 468.5
20260506035356 13 67 0.0 6.4 0.00 0.89 0.05 95 468.0
20260506034356 13 67 0.0 0.0 0.00 0.89 0.05 95 499.3
20260506033857 13 67 0.0 6.4 0.00 0.89 0.05 95 467.5
20260506032358 13 67 3.2 8.0 0.00 0.89 0.05 95 468.0
20260506031358 13 67 1.6 6.4 0.00 0.89 0.05 95 468.0
20260506030827 13 67 0.0 6.4 0.00 0.89 0.05 95 468.4
20260506025352 13 67 0.0 0.0 0.00 0.89 0.05 95 468.3
20260506024838 13 67 1.6 4.8 0.00 0.89 0.05 95 467.0
20260506023351 13 67 0.0 0.0 0.00 0.89 0.05 95 468.7
20260506023313 13 67 1.6 6.4 0.00 0.89 0.05 95 468.2
20260506021347 13 67 4.8 8.0 0.00 0.89 0.05 95 467.9
20260506020822 13 65 3.2 8.0 0.00 0.89 0.05 95 468.1
20260506015342 13 61 1.6 8.0 0.00 0.89 0.05 95 694.0
20260506014334 13 61 1.6 8.0 0.00 0.89 0.05 95 465.7
20260506013334 13 53 1.6 4.8 0.00 0.89 0.05 95 468.0
20260506012332 13 53 0.0 4.8 0.00 0.89 0.05 95 468.6
20260506011332 13 53 1.6 6.4 0.00 0.89 0.05 95 468.0